SVA1123 OERK-OEJN

Flight info

Callsign SVA1123
Flight time N/A
Altitude 32000
Route UMASU1D UMASU M309 VEMEM VEMEM2L
Aircraft B77W/H-SDE1E2E3FGHIJ2J3J4J5M1RWXY/LB1D1

Departure

Time N/A
Airport King Khalid International Airport (OERK)

Arrival

Time 2026-05-08 00:48
Airport King Abdulaziz International Airport (OEJN)
Time Latitude Longitude Altitude Speed Heading
2026-05-07 23:21 24.43718 45.64802 31392 ft 445 kts 241°
2026-05-07 23:22 24.42194 45.61858 31956 ft 441 kts 241°
2026-05-07 23:22 24.40682 45.58939 32482 ft 438 kts 241°
2026-05-07 23:22 24.39179 45.56040 32988 ft 436 kts 241°
2026-05-07 23:22 24.37683 45.53156 33489 ft 434 kts 241°
2026-05-07 23:23 24.36195 45.50289 33957 ft 431 kts 240°
2026-05-07 23:23 24.34733 45.47473 34329 ft 430 kts 241°
2026-05-07 23:23 24.33236 45.44591 34640 ft 430 kts 241°
2026-05-07 23:23 24.31752 45.41737 34943 ft 430 kts 241°
2026-05-07 23:24 24.30290 45.38927 35239 ft 430 kts 241°
2026-05-07 23:24 24.28813 45.36089 35599 ft 428 kts 241°
2026-05-07 23:24 24.27319 45.33221 35914 ft 427 kts 241°
2026-05-07 23:24 24.25863 45.30427 36211 ft 427 kts 241°
2026-05-07 23:25 24.24389 45.27598 36495 ft 427 kts 241°
2026-05-07 23:25 24.22917 45.24778 36791 ft 426 kts 241°
2026-05-07 23:25 24.21448 45.21961 37092 ft 425 kts 241°
2026-05-07 23:25 24.19979 45.19148 37361 ft 425 kts 241°
2026-05-07 23:26 24.18515 45.16347 37678 ft 423 kts 241°
2026-05-07 23:26 24.17053 45.13551 37811 ft 426 kts 241°
2026-05-07 23:26 24.15645 45.10688 37904 ft 428 kts 244°
2026-05-07 23:27 24.11708 45.01913 37986 ft 426 kts 244°
2026-05-07 23:27 24.09114 44.96121 38006 ft 422 kts 244°
2026-05-07 23:28 24.06523 44.90366 37997 ft 421 kts 244°
2026-05-07 23:28 24.03932 44.84628 38004 ft 419 kts 244°
2026-05-07 23:29 24.01348 44.78910 38006 ft 419 kts 244°
2026-05-07 23:29 23.98759 44.73189 37981 ft 420 kts 244°
2026-05-07 23:30 23.96155 44.67439 37998 ft 424 kts 244°
2026-05-07 23:30 23.93532 44.61657 38011 ft 427 kts 244°
2026-05-07 23:31 23.91185 44.55678 38018 ft 429 kts 249°
2026-05-07 23:31 23.89062 44.49582 38001 ft 429 kts 249°
2026-05-07 23:32 23.86946 44.43528 37984 ft 428 kts 249°
2026-05-07 23:32 23.84810 44.37456 37996 ft 427 kts 249°
2026-05-07 23:33 23.82677 44.31407 37993 ft 426 kts 249°
2026-05-07 23:33 23.80548 44.25381 37986 ft 424 kts 249°
2026-05-07 23:34 23.78425 44.19378 37998 ft 423 kts 249°
2026-05-07 23:34 23.76307 44.13400 37983 ft 421 kts 249°
2026-05-07 23:35 23.74192 44.07438 37972 ft 421 kts 249°
2026-05-07 23:35 23.72075 44.01477 38000 ft 422 kts 249°
2026-05-07 23:36 23.69946 43.95491 37984 ft 423 kts 249°
2026-05-07 23:36 23.67811 43.89499 37992 ft 424 kts 249°
2026-05-07 23:37 23.65672 43.83503 37992 ft 424 kts 249°
2026-05-07 23:37 23.63546 43.77552 37991 ft 424 kts 249°
2026-05-07 23:38 23.61405 43.71564 37993 ft 423 kts 249°
2026-05-07 23:38 23.59260 43.65579 38004 ft 423 kts 249°
2026-05-07 23:39 23.57117 43.59604 38000 ft 423 kts 248°
2026-05-07 23:39 23.54969 43.53626 38002 ft 423 kts 248°
2026-05-07 23:40 23.52826 43.47665 38014 ft 422 kts 248°
2026-05-07 23:40 23.50680 43.41707 38027 ft 422 kts 248°
2026-05-07 23:41 23.48547 43.35794 38009 ft 422 kts 248°
2026-05-07 23:41 23.46415 43.29890 38015 ft 421 kts 248°
2026-05-07 23:42 23.44272 43.23964 38028 ft 420 kts 248°
2026-05-07 23:42 23.42128 43.18040 38029 ft 420 kts 248°
2026-05-07 23:43 23.39990 43.12148 37969 ft 410 kts 248°
2026-05-07 23:43 23.37946 43.06527 37839 ft 393 kts 248°
2026-05-07 23:44 23.35971 43.01106 37758 ft 378 kts 248°
2026-05-07 23:44 23.34069 42.95886 37592 ft 364 kts 248°
2026-05-07 23:45 23.33138 42.93332 37358 ft 361 kts 248°
2026-05-07 23:45 23.32210 42.90791 37084 ft 360 kts 248°
2026-05-07 23:45 23.31289 42.88269 36804 ft 358 kts 248°
2026-05-07 23:45 23.30372 42.85759 36536 ft 356 kts 248°
2026-05-07 23:46 23.29458 42.83259 36273 ft 355 kts 248°
2026-05-07 23:46 23.28549 42.80772 35988 ft 353 kts 248°
2026-05-07 23:46 23.27642 42.78294 35665 ft 353 kts 248°
2026-05-07 23:46 23.26732 42.75810 35402 ft 351 kts 248°
2026-05-07 23:47 23.25832 42.73351 35168 ft 349 kts 248°
2026-05-07 23:47 23.24934 42.70902 34928 ft 347 kts 248°
2026-05-07 23:47 23.24042 42.68471 34680 ft 346 kts 248°
2026-05-07 23:47 23.23151 42.66043 34435 ft 344 kts 248°
2026-05-07 23:48 23.22277 42.63661 34206 ft 342 kts 247°
2026-05-07 23:48 23.21394 42.61259 33903 ft 342 kts 247°
2026-05-07 23:48 23.20508 42.58847 33479 ft 345 kts 247°
2026-05-07 23:48 23.19613 42.56415 33038 ft 348 kts 247°
2026-05-07 23:49 23.18713 42.53969 32614 ft 350 kts 247°
2026-05-07 23:49 23.17804 42.51500 32213 ft 353 kts 247°
2026-05-07 23:49 23.16891 42.49019 31816 ft 355 kts 247°
2026-05-07 23:49 23.15971 42.46524 31408 ft 357 kts 248°
2026-05-07 23:50 23.15045 42.44013 31039 ft 359 kts 248°
2026-05-07 23:50 23.14115 42.41488 30658 ft 361 kts 248°
2026-05-07 23:50 23.13181 42.38958 30266 ft 363 kts 247°
2026-05-07 23:50 23.12233 42.36395 29810 ft 366 kts 247°
2026-05-07 23:51 23.11295 42.33812 29388 ft 368 kts 248°
2026-05-07 23:51 23.10380 42.31248 28976 ft 369 kts 248°
2026-05-07 23:51 23.09454 42.28641 28551 ft 371 kts 248°
2026-05-07 23:51 23.08523 42.26020 28128 ft 372 kts 248°
2026-05-07 23:52 23.07585 42.23387 27696 ft 374 kts 247°
2026-05-07 23:52 23.06643 42.20746 27267 ft 376 kts 247°
2026-05-07 23:52 23.05696 42.18095 26868 ft 377 kts 247°
2026-05-07 23:52 23.05064 42.16329 26599 ft 378 kts 247°
2026-05-07 23:53 23.03787 42.12761 26031 ft 381 kts 247°
2026-05-07 23:53 23.03149 42.10982 25714 ft 383 kts 247°
2026-05-07 23:53 23.02176 42.08268 25250 ft 386 kts 247°
2026-05-07 23:53 23.01198 42.05540 24810 ft 388 kts 247°
2026-05-07 23:54 23.00217 42.02807 24398 ft 390 kts 247°
2026-05-07 23:54 22.99230 42.00057 23987 ft 392 kts 246°
2026-05-07 23:54 22.98236 41.97288 23582 ft 393 kts 247°
2026-05-07 23:54 22.97244 41.94528 23170 ft 392 kts 247°
2026-05-07 23:55 22.96262 41.91798 22707 ft 393 kts 247°
2026-05-07 23:55 22.95263 41.89024 22184 ft 395 kts 247°
2026-05-07 23:55 22.94259 41.86240 21671 ft 396 kts 247°
2026-05-07 23:55 22.93252 41.83451 21168 ft 398 kts 247°
2026-05-07 23:56 22.92243 41.80655 20668 ft 399 kts 247°
2026-05-07 23:56 22.91230 41.77850 20162 ft 400 kts 247°
2026-05-07 23:56 22.90213 41.75037 19641 ft 401 kts 247°
2026-05-07 23:56 22.89193 41.72213 19111 ft 403 kts 247°
2026-05-07 23:57 22.88168 41.69380 18596 ft 404 kts 247°
2026-05-07 23:57 22.87139 41.66537 18022 ft 406 kts 247°
2026-05-07 23:57 22.86100 41.63667 17324 ft 409 kts 247°
2026-05-07 23:57 22.85070 41.60824 16637 ft 412 kts 247°
2026-05-07 23:58 22.84024 41.57938 16167 ft 410 kts 247°
2026-05-07 23:58 22.82984 41.55070 15783 ft 406 kts 246°
2026-05-07 23:58 22.81954 41.52229 15371 ft 403 kts 246°
2026-05-07 23:58 22.80925 41.49397 15123 ft 404 kts 246°
2026-05-07 23:59 22.79890 41.46551 15068 ft 405 kts 246°
2026-05-07 23:59 22.78856 41.43711 15063 ft 403 kts 246°
2026-05-07 23:59 22.77849 41.40938 15038 ft 387 kts 246°
2026-05-07 23:59 22.76885 41.38286 15051 ft 368 kts 246°
2026-05-08 00:00 22.75952 41.35725 15065 ft 368 kts 246°
2026-05-08 00:00 22.75010 41.33147 15065 ft 366 kts 246°
2026-05-08 00:00 22.74078 41.30593 15047 ft 362 kts 246°
2026-05-08 00:00 22.73156 41.28070 15061 ft 359 kts 246°
2026-05-08 00:01 22.72235 41.25553 15068 ft 361 kts 246°
2026-05-08 00:01 22.71308 41.23022 15067 ft 361 kts 246°
2026-05-08 00:01 22.70382 41.20489 15065 ft 362 kts 246°
2026-05-08 00:01 22.69436 41.17964 15067 ft 362 kts 245°
2026-05-08 00:02 22.68449 41.15444 15059 ft 363 kts 245°
2026-05-08 00:02 22.67465 41.12964 15048 ft 363 kts 244°
2026-05-08 00:02 22.66466 41.10453 15067 ft 362 kts 244°
2026-05-08 00:02 22.65470 41.07942 15059 ft 362 kts 245°
2026-05-08 00:03 22.64478 41.05439 15055 ft 362 kts 245°
2026-05-08 00:03 22.63486 41.02932 15057 ft 362 kts 245°
2026-05-08 00:03 22.62499 41.00431 15055 ft 361 kts 245°
2026-05-08 00:03 22.61510 40.97926 15058 ft 361 kts 245°
2026-05-08 00:04 22.60525 40.95428 15057 ft 361 kts 245°
2026-05-08 00:04 22.59535 40.92921 15058 ft 361 kts 245°
2026-05-08 00:04 22.58549 40.90424 15057 ft 361 kts 245°
2026-05-08 00:04 22.57575 40.87959 15057 ft 361 kts 245°
2026-05-08 00:05 22.56589 40.85466 15060 ft 361 kts 245°
2026-05-08 00:05 22.55601 40.82967 15063 ft 361 kts 245°
2026-05-08 00:05 22.54613 40.80470 15059 ft 361 kts 245°
2026-05-08 00:05 22.53623 40.77972 15061 ft 361 kts 245°
2026-05-08 00:06 22.52635 40.75476 15061 ft 361 kts 245°
2026-05-08 00:06 22.51643 40.72975 15058 ft 361 kts 245°
2026-05-08 00:06 22.50653 40.70478 15059 ft 361 kts 245°
2026-05-08 00:06 22.49663 40.67983 15063 ft 361 kts 245°
2026-05-08 00:07 22.48671 40.65484 15064 ft 361 kts 245°
2026-05-08 00:07 22.47679 40.62986 15061 ft 362 kts 245°
2026-05-08 00:07 22.46685 40.60486 15059 ft 362 kts 245°
2026-05-08 00:07 22.45691 40.57987 15061 ft 362 kts 245°
2026-05-08 00:08 22.44698 40.55489 15066 ft 362 kts 245°
2026-05-08 00:08 22.43703 40.52990 15066 ft 362 kts 245°
2026-05-08 00:08 22.42722 40.50528 15067 ft 362 kts 245°
2026-05-08 00:08 22.41727 40.48029 15067 ft 362 kts 245°
2026-05-08 00:09 22.40730 40.45527 15065 ft 362 kts 244°
2026-05-08 00:09 22.39733 40.43028 15064 ft 362 kts 244°
2026-05-08 00:09 22.38735 40.40529 15069 ft 362 kts 245°
2026-05-08 00:09 22.37738 40.38031 15071 ft 362 kts 245°
2026-05-08 00:10 22.36737 40.35527 15071 ft 362 kts 245°
2026-05-08 00:10 22.35741 40.33034 15066 ft 362 kts 245°
2026-05-08 00:10 22.34743 40.30540 15072 ft 362 kts 245°
2026-05-08 00:10 22.33755 40.28070 15055 ft 362 kts 245°
2026-05-08 00:11 22.32758 40.25578 15056 ft 362 kts 245°
2026-05-08 00:11 22.31757 40.23078 15057 ft 362 kts 244°
2026-05-08 00:11 22.30754 40.20577 15045 ft 363 kts 244°
2026-05-08 00:11 22.29751 40.18075 15054 ft 363 kts 244°
2026-05-08 00:12 22.28746 40.15571 15051 ft 364 kts 244°
2026-05-08 00:12 22.27741 40.13067 15040 ft 364 kts 244°
2026-05-08 00:12 22.26732 40.10553 15025 ft 364 kts 244°
2026-05-08 00:12 22.25731 40.08061 15021 ft 364 kts 244°
2026-05-08 00:13 22.24714 40.05531 15021 ft 364 kts 244°
2026-05-08 00:13 22.23711 40.03037 14980 ft 364 kts 244°
2026-05-08 00:13 22.22706 40.00532 15028 ft 362 kts 244°
2026-05-08 00:13 22.21700 39.98038 14991 ft 364 kts 244°
2026-05-08 00:14 22.20688 39.95530 14985 ft 363 kts 244°
2026-05-08 00:14 22.19501 39.93168 14974 ft 357 kts 229°
2026-05-08 00:14 22.17641 39.91405 14987 ft 355 kts 210°
2026-05-08 00:14 22.15410 39.90442 14972 ft 340 kts 192°
2026-05-08 00:15 22.13109 39.90229 14975 ft 325 kts 180°
2026-05-08 00:15 22.10939 39.90548 14965 ft 314 kts 166°
2026-05-08 00:15 22.08977 39.91463 14981 ft 305 kts 156°
2026-05-08 00:15 22.07045 39.92361 14976 ft 300 kts 167°
2026-05-08 00:16 22.05009 39.92855 14989 ft 301 kts 171°
2026-05-08 00:16 22.02941 39.93283 14979 ft 303 kts 171°
2026-05-08 00:16 22.00873 39.93743 14986 ft 304 kts 170°
2026-05-08 00:16 21.98801 39.94216 14994 ft 304 kts 172°
2026-05-08 00:17 21.96672 39.94375 14997 ft 302 kts 182°
2026-05-08 00:17 21.94576 39.94299 14989 ft 301 kts 185°
2026-05-08 00:17 21.92602 39.93804 14968 ft 295 kts 206°
2026-05-08 00:17 21.90960 39.92491 14978 ft 296 kts 226°
2026-05-08 00:18 21.89821 39.90636 14972 ft 300 kts 243°
2026-05-08 00:18 21.89200 39.88483 14971 ft 304 kts 261°
2026-05-08 00:18 21.89319 39.86208 14989 ft 307 kts 275°
2026-05-08 00:18 21.89647 39.83908 14970 ft 314 kts 275°
2026-05-08 00:19 21.89989 39.81579 14963 ft 315 kts 275°
2026-05-08 00:19 21.90328 39.79248 14955 ft 314 kts 275°
2026-05-08 00:19 21.90658 39.76930 14949 ft 312 kts 274°
2026-05-08 00:19 21.90979 39.74621 14937 ft 311 kts 274°
2026-05-08 00:20 21.91294 39.72321 14934 ft 310 kts 274°
2026-05-08 00:20 21.91603 39.70026 14934 ft 309 kts 274°
2026-05-08 00:20 21.91911 39.67737 14936 ft 308 kts 274°
2026-05-08 00:20 21.92216 39.65450 14926 ft 308 kts 274°
2026-05-08 00:21 21.92520 39.63162 14923 ft 309 kts 274°
2026-05-08 00:21 21.92820 39.60902 14932 ft 309 kts 274°
2026-05-08 00:21 21.93125 39.58603 14933 ft 311 kts 274°
2026-05-08 00:21 21.93431 39.56294 14923 ft 312 kts 274°
2026-05-08 00:22 21.93737 39.53982 14914 ft 313 kts 274°
2026-05-08 00:22 21.94045 39.51650 14911 ft 313 kts 273°
2026-05-08 00:22 21.94048 39.49362 14909 ft 302 kts 254°
2026-05-08 00:22 21.93322 39.47279 14902 ft 296 kts 241°
2026-05-08 00:23 21.92416 39.45277 14907 ft 298 kts 241°
2026-05-08 00:23 21.91500 39.43262 14897 ft 301 kts 241°
2026-05-08 00:23 21.90581 39.41237 14903 ft 302 kts 241°
2026-05-08 00:23 21.89660 39.39193 14890 ft 304 kts 241°
2026-05-08 00:24 21.88743 39.37152 14876 ft 300 kts 241°
2026-05-08 00:24 21.87860 39.35175 14866 ft 286 kts 241°
2026-05-08 00:24 21.87020 39.33291 14853 ft 271 kts 241°
2026-05-08 00:24 21.86229 39.31518 14851 ft 255 kts 241°
2026-05-08 00:25 21.85470 39.29820 14809 ft 250 kts 241°
2026-05-08 00:25 21.84727 39.28159 14558 ft 248 kts 241°
2026-05-08 00:25 21.83969 39.26467 14213 ft 248 kts 241°
2026-05-08 00:25 21.83237 39.24830 13805 ft 245 kts 241°
2026-05-08 00:26 21.82498 39.23177 13223 ft 246 kts 241°
2026-05-08 00:26 21.81725 39.21542 12662 ft 243 kts 233°
2026-05-08 00:26 21.80691 39.20123 12126 ft 240 kts 227°
2026-05-08 00:26 21.79573 39.18785 11619 ft 239 kts 226°
2026-05-08 00:27 21.78464 39.17468 11121 ft 237 kts 227°
2026-05-08 00:27 21.77367 39.16153 10637 ft 236 kts 227°
2026-05-08 00:27 21.76274 39.14833 10149 ft 235 kts 227°
2026-05-08 00:27 21.75194 39.13520 9689 ft 234 kts 228°
2026-05-08 00:28 21.74124 39.12212 9194 ft 233 kts 228°
2026-05-08 00:28 21.73062 39.10912 8961 ft 233 kts 228°
2026-05-08 00:28 21.72204 39.09858 8888 ft 235 kts 228°
2026-05-08 00:28 21.71130 39.08539 8821 ft 234 kts 228°
2026-05-08 00:29 21.70062 39.07226 8588 ft 232 kts 228°
2026-05-08 00:29 21.68999 39.05920 8176 ft 231 kts 228°
2026-05-08 00:29 21.67940 39.04619 7744 ft 231 kts 227°
2026-05-08 00:29 21.66696 39.03577 7357 ft 226 kts 200°
2026-05-08 00:30 21.65146 39.03390 6965 ft 227 kts 174°
2026-05-08 00:30 21.63578 39.03829 6938 ft 243 kts 163°
2026-05-08 00:30 21.61917 39.04484 6911 ft 254 kts 161°
2026-05-08 00:30 21.60312 39.05138 6854 ft 238 kts 162°
2026-05-08 00:31 21.58808 39.05748 6853 ft 228 kts 162°
2026-05-08 00:31 21.57318 39.06346 6911 ft 229 kts 162°
2026-05-08 00:31 21.55836 39.06929 6889 ft 230 kts 163°
2026-05-08 00:31 21.54309 39.07530 6874 ft 237 kts 162°
2026-05-08 00:32 21.52754 39.08140 6862 ft 238 kts 161°
2026-05-08 00:32 21.51211 39.08747 6850 ft 234 kts 161°
2026-05-08 00:32 21.49692 39.09348 6852 ft 232 kts 161°
2026-05-08 00:32 21.48180 39.09947 6858 ft 232 kts 162°
2026-05-08 00:33 21.46667 39.10546 6861 ft 232 kts 162°
2026-05-08 00:33 21.45154 39.11143 6868 ft 232 kts 161°
2026-05-08 00:33 21.43636 39.11742 6862 ft 233 kts 162°
2026-05-08 00:33 21.42115 39.12342 6873 ft 233 kts 162°
2026-05-08 00:34 21.40598 39.12944 6872 ft 232 kts 161°
2026-05-08 00:34 21.39086 39.13544 6661 ft 233 kts 161°
2026-05-08 00:34 21.37563 39.14145 6360 ft 231 kts 161°
2026-05-08 00:34 21.36072 39.14733 6079 ft 224 kts 162°
2026-05-08 00:35 21.34627 39.15304 5677 ft 219 kts 161°
2026-05-08 00:35 21.33205 39.15866 5210 ft 214 kts 160°
2026-05-08 00:35 21.31832 39.16409 4802 ft 208 kts 160°
2026-05-08 00:35 21.30509 39.16932 4422 ft 201 kts 159°
2026-05-08 00:36 21.29214 39.17446 3984 ft 199 kts 159°
2026-05-08 00:36 21.27918 39.17957 3559 ft 195 kts 159°
2026-05-08 00:36 21.26650 39.18456 3141 ft 192 kts 159°
2026-05-08 00:36 21.25371 39.19001 3016 ft 203 kts 149°
2026-05-08 00:37 21.24467 39.20097 2978 ft 196 kts 107°
2026-05-08 00:37 21.24485 39.21501 3001 ft 191 kts 71°
2026-05-08 00:37 21.24934 39.22825 2999 ft 190 kts 70°
2026-05-08 00:38 21.25824 39.25436 2632 ft 184 kts 66°
2026-05-08 00:38 21.26276 39.26744 2608 ft 189 kts 68°
2026-05-08 00:38 21.26785 39.28010 2590 ft 184 kts 52°
2026-05-08 00:38 21.27805 39.28770 2590 ft 179 kts 12°
2026-05-08 00:39 21.29063 39.28678 2598 ft 183 kts 350°
2026-05-08 00:39 21.30262 39.28356 2591 ft 172 kts 347°
2026-05-08 00:39 21.31410 39.27988 2580 ft 176 kts 346°
2026-05-08 00:39 21.32581 39.27577 2586 ft 176 kts 343°
2026-05-08 00:40 21.33716 39.27153 2578 ft 172 kts 342°
2026-05-08 00:40 21.34862 39.26712 2583 ft 176 kts 342°
2026-05-08 00:40 21.36020 39.26260 2589 ft 177 kts 343°
2026-05-08 00:40 21.37143 39.25821 2576 ft 173 kts 342°
2026-05-08 00:41 21.38271 39.25375 2577 ft 174 kts 341°
2026-05-08 00:41 21.39406 39.24928 2578 ft 172 kts 342°
2026-05-08 00:41 21.40530 39.24486 2572 ft 171 kts 341°
2026-05-08 00:41 21.41645 39.24042 2577 ft 171 kts 341°
2026-05-08 00:42 21.42764 39.23599 2569 ft 171 kts 341°
2026-05-08 00:42 21.43892 39.23154 2577 ft 174 kts 341°
2026-05-08 00:42 21.45029 39.22703 2573 ft 174 kts 342°
2026-05-08 00:42 21.46156 39.22257 2570 ft 173 kts 342°
2026-05-08 00:43 21.47291 39.21808 2574 ft 173 kts 341°
2026-05-08 00:43 21.48403 39.21366 2561 ft 169 kts 340°
2026-05-08 00:43 21.49502 39.20931 2552 ft 167 kts 341°
2026-05-08 00:43 21.50604 39.20495 2567 ft 173 kts 341°
2026-05-08 00:44 21.51733 39.20048 2563 ft 176 kts 340°
2026-05-08 00:44 21.52871 39.19595 2565 ft 173 kts 341°
2026-05-08 00:44 21.53972 39.19159 2552 ft 163 kts 342°
2026-05-08 00:44 21.55022 39.18742 2408 ft 158 kts 342°
2026-05-08 00:45 21.56036 39.18341 2218 ft 152 kts 342°
2026-05-08 00:45 21.57022 39.17949 2007 ft 151 kts 341°
2026-05-08 00:45 21.57991 39.17563 1816 ft 146 kts 341°
2026-05-08 00:45 21.58940 39.17189 1636 ft 144 kts 342°
2026-05-08 00:46 21.59881 39.16817 1439 ft 143 kts 342°
2026-05-08 00:46 21.60820 39.16442 1276 ft 145 kts 341°
2026-05-08 00:46 21.61764 39.16069 1083 ft 143 kts 339°
2026-05-08 00:46 21.62706 39.15694 900 ft 145 kts 342°
2026-05-08 00:47 21.63661 39.15316 744 ft 150 kts 340°
2026-05-08 00:47 21.64665 39.14916 560 ft 153 kts 340°
2026-05-08 00:47 21.65634 39.14532 353 ft 147 kts 339°
2026-05-08 00:47 21.66581 39.14139 198 ft 146 kts 340°
2026-05-08 00:48 21.67520 39.13770 44 ft 140 kts 341°
2026-05-08 00:48 21.68251 39.13485 35 ft 69 kts 340°
2026-05-08 00:48 21.68414 39.13428 34 ft 0 kts 346°
2026-05-08 00:48 21.68420 39.13426 34 ft 2 kts 346°
2026-05-08 00:49 21.68472 39.13417 33 ft 12 kts 355°
2026-05-08 00:49 21.68559 39.13416 33 ft 13 kts
2026-05-08 00:49 21.68645 39.13429 33 ft 13 kts
2026-05-08 00:49 21.68714 39.13441 33 ft 8 kts
2026-05-08 00:50 21.68769 39.13450 33 ft 8 kts
2026-05-08 00:50 21.68825 39.13455 33 ft 8 kts
2026-05-08 00:50 21.68881 39.13448 33 ft 8 kts 348°
2026-05-08 00:50 21.68936 39.13431 32 ft 8 kts 340°
2026-05-08 00:51 21.68991 39.13410 32 ft 9 kts 340°
2026-05-08 00:51 21.69000 39.13406 32 ft 0 kts 340°
2026-05-08 00:53 21.69020 39.13399 32 ft 9 kts 340°
2026-05-08 00:53 21.69088 39.13372 32 ft 11 kts 340°
2026-05-08 00:53 21.69158 39.13344 32 ft 11 kts 340°
2026-05-08 00:54 21.69227 39.13316 31 ft 11 kts 340°
2026-05-08 00:54 21.69297 39.13290 31 ft 11 kts 343°
2026-05-08 00:54 21.69365 39.13306 31 ft 11 kts 46°
2026-05-08 00:54 21.69395 39.13371 31 ft 9 kts 68°
2026-05-08 00:55 21.69422 39.13432 30 ft 9 kts 54°
2026-05-08 00:55 21.69482 39.13453 30 ft 9 kts 357°
2026-05-08 00:55 21.69538 39.13435 30 ft 5 kts 352°
2026-05-08 00:55 21.69564 39.13461 30 ft 6 kts 67°
2026-05-08 00:56 21.69578 39.13503 30 ft 5 kts 66°
2026-05-08 00:56 21.69584 39.13517 30 ft 0 kts 66°
2026-05-08 00:58 21.69583 39.13513 292 ft 0 kts 36°
2026-05-08 00:58 21.69577 39.13520 25 ft 0 kts
2026-05-08 01:03 21.69579 39.13521 25 ft 0 kts 10°
2026-05-08 01:03 21.69583 39.13520 25 ft 1 kts 355°
2026-05-08 01:03 21.69587 39.13517 25 ft 1 kts 335°
2026-05-08 01:04 21.69590 39.13513 25 ft 1 kts 315°
2026-05-08 01:04 21.69591 39.13508 30 ft 1 kts 295°
2026-05-08 01:04 21.69591 39.13503 30 ft 1 kts 275°
2026-05-08 01:04 21.69589 39.13498 30 ft 1 kts 255°
2026-05-08 01:05 21.69586 39.13495 30 ft 1 kts 236°
2026-05-08 01:05 21.69582 39.13492 27 ft 2 kts 216°
2026-05-08 01:05 21.69545 39.13508 27 ft 10 kts 145°
2026-05-08 01:05 21.69482 39.13471 30 ft 8 kts 274°
2026-05-08 01:06 21.69522 39.13441 30 ft 7 kts 336°
2026-05-08 01:06 21.69555 39.13427 30 ft 8 kts 340°
2026-05-08 01:06 21.69584 39.13427 30 ft 0 kts 25°
2026-05-08 01:06 21.69618 39.13419 30 ft 11 kts 338°
2026-05-08 01:07 21.69637 39.13381 29 ft 7 kts 255°
2026-05-08 01:07 21.69594 39.13367 30 ft 7 kts 170°
2026-05-08 01:07 21.69551 39.13395 30 ft 8 kts 121°
2026-05-08 01:07 21.69553 39.13420 30 ft 3 kts 74°
2026-05-08 01:08 21.69556 39.13430 30 ft 2 kts 74°
2026-05-08 01:08 21.69563 39.13454 30 ft 2 kts 73°
2026-05-08 01:10 21.69572 39.13482 25 ft 5 kts 70°
2026-05-08 01:10 21.69582 39.13510 25 ft 0 kts 68°
2026-05-08 01:11 21.69583 39.13511 25 ft 1 kts 68°